Regional Weather Roundup
Issued by NWS

Home | Current Version | Previous Version | Graphics & Text | Print | Product List | Glossary On
Versions: 1 2 3 4 5 6 7 8 9 10 11 12 13 14 15 16 17 18 19 20 21 22 23 24 25 26 27 28 29 30 31 32 33 34 35 36 37 38 39 40 41 42 43 44 45 46 47 48 49 50
166
ASUS45 KBOU 161207
RWRCO

WEATHER ROUNDUP FOR COLORADO
NATIONAL WEATHER SERVICE DENVER/BOULDER CO
600 AM MDT MON OCT 16 2017

NOTE: "FAIR" INDICATES FEW OR NO CLOUDS BELOW 12000 FEET WITH NO
SIGNIFICANT WEATHER AND/OR OBSTRUCTIONS TO VISIBILITY.

COZ001>005-013-030-031-161300-
...NORTHWEST COLORADO...

CITY           SKY/WX    TMP DP  RH WIND       PRES   REMARKS
CRAIG          FAIR      22  16  78 CALM      30.47S
HAYDEN         FAIR      33  16  49 E13       30.48S WCI  24
MEEKER         FAIR      23  16  74 CALM      30.48S
RABBIT EARS PA FAIR      34   1  25 W7        30.57S WCI  28
STEAMBOAT SPGS FAIR      26  16  65 CALM      30.49R
WALDEN         FAIR      30  10  43 S5        30.49S WCI  25
$$

COZ006>008-011-161300-
...WEST CENTRAL VALLEYS...

CITY           SKY/WX    TMP DP  RH WIND       PRES   REMARKS
GRAND JUNCTION FAIR      32  15  49 E3        30.46S
MONTROSE       FAIR      28  14  55 SE6       30.51R WCI  22
EAGLE          FAIR      24  18  77 E3        30.57R
RIFLE          FAIR      28  17  63 CALM      30.51R
DELTA          FAIR      31  13  48 CALM      30.49S
NUCLA          FAIR      32   7  34 E3        30.53R
$$

COZ017>023-064>068-161300-
...SOUTHWEST COLORADO...

CITY           SKY/WX    TMP DP  RH WIND       PRES   REMARKS
DURANGO        FAIR      24  13  62 NE5       30.51S WCI  18
CORTEZ         FAIR      23  13  65 E6        30.49S WCI  16
PAGOSA SPRINGS FAIR      29  11  47 CALM      30.56S
TELLURIDE      NOT AVBL
WOLF CREEK PAS FAIR      36  -4  18 SW9       30.76S
$$

COZ009-010-012-014-032>034-037-058>063-161300-
...CENTRAL COLORADO...

CITY           SKY/WX    TMP DP  RH WIND       PRES   REMARKS
ASPEN          FAIR      28  11  48 VRB3      30.52R
BUENA VISTA    FAIR      25  13  60 NW3       30.53R
COPPER MTN     SNOW      34   0  23 W18       30.66S VSB 1/2 WCI  23
BERTHOUD PASS  FAIR      30  21  69 NW41G52   30.59F WCI  13
COTTONWOOD PAS FAIR      46 -11   8 N3        30.58R
GUNNISON       FAIR      18  11  74 N3        30.61S
KREMMLING      FAIR      23  19  86 CALM      30.56S
LEADVILLE      FAIR      34  -7  17 VRB5      30.56F WCI  30
MONARCH PASS   FAIR      32   0  25 SW24      30.77S WCI  19
SALIDA         NOT AVBL
SUNLIGHT       FAIR      34  -9  15 SW8       30.66S WCI  27
WILKERSON PASS FAIR      36  -8  15 W8        30.64S
$$

COZ069>075-161300-
...SAN LUIS VALLEY/SANGRE DE CRISTO MOUNTAINS...

CITY           SKY/WX    TMP DP  RH WIND       PRES   REMARKS
ALAMOSA        FAIR      18  13  80 NE3       30.55R
DEL NORTE      FAIR      32   7  35 W14       30.56R WCI  22
LA VETA PASS   FAIR      34  12  40 MISG      30.68R
SAGUACHE       FAIR      32   5  32 NW13      30.56S WCI  22
$$

COZ035-036-038>040-161300-
...NORTHERN COLORADO FRONT RANGE...

CITY           SKY/WX    TMP DP  RH WIND       PRES   REMARKS
DENVER INTL AP MOCLDY    50  16  25 SW18      30.31F
DMNS CITY PARK   N/A     44  19  36 SE9       30.32S
AURORA         PTCLDY    46  18  32 S12       30.33F
FRONT RANGE AP FAIR      41  27  56 S14G20    30.33S
ERIE MUNI ARPT FAIR      31  28  88 W5        30.37S WCI  27
BOULDER MUN AP FAIR      39  30  70 SW3       30.31S HAZE
CENTENNIAL     FAIR      41  21  44 SE5       30.34S
BROOMFIELD     MOCLDY    48  18  29 CALM      30.32S
FORT COLLINS   FAIR      36  28  73 NE5       30.31F
LONGMONT       FAIR      33  28  81 CALM      30.33S
$$

COZ041-046-047-076>085-087-088-161300-
...PIKES PEAK/PALMER DIVIDE AND SOUTHERN FOOTHILLS...

CITY           SKY/WX    TMP DP  RH WIND       PRES   REMARKS
COLO. SPRINGS  MOCLDY    36  23  59 N7        30.40S
A. F. ACADEMY  FAIR      37  17  44 CALM      30.39S
SCHRIEVER AFB  FAIR      41  20  42 MISG      30.40S
CHEYENNE MTN   MOCLDY    51   8  17 CALM      30.35F
ELLICOTT       FAIR     N/A N/A N/A CALM      30.38S
FALCON         FAIR      40  16  37 CALM      30.42S
FORT CARSON    FAIR      36  22  56 NW8       30.37F HAZE
LIMON          FAIR      25  23  92 NW5       30.36F WCI  19
MONUMENT HILL  FAIR      45  10  24 SW9       30.42S
CANON CITY     CLEAR     48  19  32 W7        30.37S
WALSENBURG     NOT AVBL
TRINIDAD       FAIR      40  22  48 W14       30.39F
$$

COZ042>045-048>051-090-091-161300-
...NORTHEAST COLORADO...

CITY           SKY/WX    TMP DP  RH WIND       PRES   REMARKS
GREELEY ARPT   FAIR      28  26  92 CALM      30.32F
AKRON          FAIR      41  23  48 SW12      30.29F
BURLINGTON     FAIR      35  27  72 W12       30.32F WCI  27
WRAY           FAIR      34  28  80 W5        30.31S WCI  30
YUMA           NOT AVBL
STERLING       FAIR      30  28  93 S7        30.29F WCI  23
HOLYOKE        FAIR      34  30  86 SW3       30.29F
FORT MORGAN    FAIR      27  25  90 W7        30.32S WCI  20
$$

COZ086-089-092>099-161300-
...SOUTHEAST COLORADO...

CITY           SKY/WX    TMP DP  RH WIND       PRES   REMARKS
PUEBLO         FAIR      31  25  78 W7        30.37S WCI  24
LA JUNTA       FAIR      36  29  75 W6        30.36S
LAMAR          FAIR      28  25  88 SW7       30.34F WCI  21
SPRINGFIELD      N/A     31  28  89 SW10      30.36S WCI  22
$$




USA.gov is the U.S. government's official web portal to all federal, state and local government web resources and services.